Wind_Speed
4 2 20 21 21 19 17 15 13 11 10 10 11 13 13 10 9 8 8 8 8 10 10 11 10 10 10 12 11 11 10 7 4 4 3 4 9 11 12 13 12 12 13
5 7 17 21 21 19 17 15 13 12 11 11 11 13 14 11 9 8 8 8 7 8 9 9 9 9 8 9 9 10 9 8 6 4 3 6 11 12 13 14 10 10 12
9 9 15 23 21 19 17 15 13 13 12 12 11 12 13 12 9 8 8 7 7 8 8 8 8 7 7 7 7 7 7 6 5 3 4 8 11 15 15 13 11 11 12
7 10 14 25 22 19 17 16 14 14 13 12 12 12 14 12 10 9 8 7 7 7 8 8 7 7 7 7 6 6 6 7 4 3 8 5 4 9 12 10 12 11 12
7 13 15 26 23 19 18 16 15 15 14 13 13 14 15 13 11 9 9 8 8 6 7 7 7 7 7 7 7 7 7 7 5 6 7 11 8 9 10 9 10 11 13
7 11 11 26 23 20 19 18 16 15 14 14 14 15 15 13 12 10 10 9 9 7 8 8 8 8 8 7 7 7 7 8 6 8 10 12 12 7 9 11 12 13 14
6 14 12 19 23 22 20 18 16 15 15 15 15 15 15 14 12 11 11 10 9 8 8 8 9 9 8 8 8 8 8 7 7 10 14 6 10 11 9 13 13 13 13
7 15 15 16 23 23 21 19 17 16 15 15 15 16 16 15 14 13 13 12 10 10 9 9 10 10 9 10 9 9 8 8 8 14 15 11 12 9 10 14 13 14 15
9 12 12 18 22 24 22 20 19 17 16 16 16 16 16 16 15 15 15 14 12 12 11 10 11 11 11 11 11 11 10 10 10 10 15 5 9 6 11 13 14 15 16
9 15 17 15 24 27 25 23 21 20 18 16 16 17 16 16 16 16 17 16 15 14 13 12 12 13 12 12 13 13 12 13 12 13 9 8 6 8 8 13 15 15 16
8 13 17 16 22 29 27 26 24 22 20 19 19 19 18 18 18 19 20 18 17 16 15 15 14 15 14 14 15 15 15 15 13 10 11 7 6 12 10 12 15 17 19
11 11 14 18 17 26 27 27 25 24 23 22 22 21 21 20 20 21 21 21 19 19 18 17 17 16 16 16 16 17 18 17 12 5 9 10 4 19 15 11 15 16 18
13 15 17 23 21 22 20 21 25 27 26 25 24 23 22 21 19 14 15 17 20 21 21 21 20 20 19 17 13 16 15 19 12 14 18 19 17 17 12 13 15 18 18
8 12 18 17 18 26 27 22 19 22 25 26 26 25 24 24 20 20 21 23 21 20 23 23 20 20 20 18 14 17 18 12 10 17 17 8 13 12 11 13 15 16 20
10 11 12 15 14 15 22 23 21 18 23 20 19 20 25 22 23 22 25 22 24 18 17 21 18 17 17 15 17 19 20 19 21 22 21 17 13 12 12 14 14 16 21
7 3 2 6 15 15 18 22 21 20 24 22 25 23 22 25 21 26 23 23 23 23 20 18 20 22 22 21 20 21 26 24 22 22 20 16 14 14 14 15 16 20 21
2 5 4 10 7 13 13 18 23 20 24 23 25 27 28 28 30 26 28 27 25 23 23 19 21 20 19 21 22 23 22 22 21 20 18 18 17 14 15 14 19 23 22
1 4 3 11 13 15 13 15 18 22 20 28 24 28 26 31 30 32 35 31 28 27 24 24 22 28 23 23 21 23 23 21 20 19 20 19 20 18 16 17 20 23 25
4 6 5 8 12 17 21 21 21 20 22 26 27 27 30 26 32 32 33 32 36 30 28 27 27 25 26 27 23 20 20 19 19 19 22 20 23 24 20 17 19 21 24
3 4 4 5 8 13 15 21 27 27 23 26 28 30 30 31 30 34 33 33 30 40 39 28 28 27 28 28 21 16 17 19 18 22 22 20 23 23 24 17 18 20 22
3 4 5 6 7 9 9 11 11 14 20 24 27 32 31 32 34 34 37 38 38 35 38 41 29 32 34 28 21 24 23 24 24 23 22 22 22 23 21 17 16 19 19
6 7 7 7 8 9 8 13 16 20 26 24 26 28 37 37 36 40 38 38 41 41 37 35 37 37 35 31 28 22 16 24 28 30 29 27 26 25 25 19 15 17 13
7 10 10 10 10 12 13 14 15 18 22 28 30 29 26 32 37 40 41 43 42 44 43 39 39 45 42 34 32 21 10 13 10 17 26 24 23 25 26 21 20 17 11
7 10 14 16 16 14 18 19 18 21 24 24 26 27 24 28 39 42 44 43 45 48 45 41 40 40 40 35 36 37 28 7 11 6 15 20 21 25 25 22 22 20 17
10 12 15 17 18 19 21 21 24 27 29 31 33 35 39 33 24 43 46 44 45 45 46 45 42 42 42 42 40 39 39 31 19 15 9 16 17 19 20 21 21 23 24
13 15 16 17 19 22 23 24 26 28 31 34 36 39 39 44 36 31 47 47 47 43 42 43 42 43 43 44 41 40 36 34 37 30 24 16 17 15 14 16 21 23 22
Wind_Direction
292 218 185 182 176 175 178 181 184 187 188 186 184 185 187 182 172 163 159 165 168 170 173 169 172 174 180 190 198 204 214 224 195 183 183 157 145 144 137 129 132 130 133
220 230 201 190 183 179 180 184 186 186 187 188 188 191 192 188 183 175 167 166 174 173 174 178 179 181 183 192 207 220 234 238 215 209 187 155 148 144 135 129 134 156 144
258 230 208 198 192 184 182 184 188 188 187 190 193 196 197 193 191 187 181 176 176 176 181 189 190 189 195 202 222 234 237 225 202 235 187 164 159 149 148 153 158 162 156
240 232 214 201 194 188 187 187 190 188 186 190 196 203 202 201 199 195 191 186 185 189 188 194 199 199 197 219 229 238 229 215 238 227 148 143 206 185 164 173 165 163 163
173 246 222 200 195 190 191 192 192 188 184 186 195 202 200 205 207 206 201 195 195 203 194 205 210 210 214 231 232 229 223 236 250 196 185 196 226 194 191 190 176 176 170
168 233 227 198 198 193 193 198 194 189 184 184 189 195 200 208 213 214 211 207 205 213 210 216 223 219 222 230 235 234 233 246 234 195 203 221 202 189 227 194 187 184 178
183 216 235 203 201 196 198 201 196 193 189 186 190 195 201 208 216 222 220 218 217 221 224 231 238 229 229 236 238 232 232 243 236 223 250 135 218 234 242 208 191 194 189
210 223 223 219 210 200 200 203 199 199 196 194 194 198 203 209 215 219 222 224 227 233 234 238 243 242 238 241 241 236 240 249 232 236 264 252 188 242 228 218 203 198 194
176 237 235 226 213 206 202 203 205 204 201 201 202 204 207 211 214 218 221 225 224 235 243 246 244 243 246 246 246 242 242 247 244 213 285 213 175 255 256 221 214 204 202
210 212 237 228 213 207 205 205 206 206 206 206 209 210 213 215 216 218 220 224 227 233 238 244 244 245 248 249 249 250 247 246 245 226 245 251 283 262 277 229 216 214 210
272 218 217 243 213 209 209 207 207 207 208 207 210 212 214 217 217 217 219 223 228 231 238 244 245 244 247 249 250 251 249 247 246 239 286 262 228 280 267 254 234 223 218
257 250 218 226 222 210 212 213 211 212 212 211 212 214 216 218 222 223 223 227 229 232 234 238 242 245 248 252 254 255 255 252 241 217 266 273 291 290 243 263 246 238 228
275 237 230 226 219 204 204 226 216 216 217 214 217 219 218 218 215 224 230 238 238 234 236 238 242 244 249 250 254 269 266 262 227 244 252 276 267 260 252 246 236 232 230
278 253 244 239 243 223 202 201 229 224 222 226 221 219 219 216 215 209 228 232 239 249 239 240 242 250 251 250 227 254 269 266 233 243 256 248 241 246 247 245 243 238 235
277 254 250 244 247 238 207 213 211 215 227 227 231 230 219 217 213 210 220 231 243 244 254 233 232 241 245 243 233 239 250 247 239 239 246 253 240 238 241 244 244 242 238
241 145 265 259 248 231 222 218 216 216 227 238 211 217 229 215 216 212 222 220 236 245 244 247 228 233 234 237 242 241 243 249 253 248 254 249 240 248 236 237 250 250 252
278 282 274 236 271 265 246 238 229 215 224 235 244 227 215 223 210 220 219 222 221 239 246 251 221 226 236 240 236 239 245 247 251 254 252 255 249 251 248 246 264 252 255
248 312 299 241 236 223 219 242 258 231 220 226 236 248 243 226 224 218 221 215 211 223 239 241 234 231 226 234 243 242 245 252 252 254 255 244 255 249 254 248 266 261 261
2 320 314 274 259 243 223 217 222 238 244 229 234 238 250 241 231 225 235 229 218 208 219 239 237 237 222 229 231 245 245 246 247 253 250 241 241 259 254 262 267 270 256
13 358 317 287 273 263 257 241 235 232 243 245 235 238 236 245 234 231 224 241 236 216 212 208 234 231 223 232 225 234 244 249 244 245 248 250 250 252 255 250 272 272 276
10 327 334 345 333 314 288 263 257 261 247 251 248 241 241 237 239 234 230 228 241 238 230 212 224 232 226 226 213 221 228 239 243 240 251 246 243 248 258 252 274 266 279
351 324 349 343 321 301 298 268 259 251 236 238 231 237 246 237 241 237 231 225 236 242 239 228 211 226 222 222 215 216 227 235 243 246 247 250 244 246 257 247 264 263 270
332 331 336 329 320 316 311 295 284 267 258 252 254 247 247 238 238 239 237 234 230 240 240 232 221 224 230 220 220 213 197 217 221 247 238 240 239 238 249 247 257 251 250
342 331 320 318 320 319 300 296 290 282 278 265 249 247 244 253 249 244 242 237 237 239 244 237 229 229 227 220 216 225 228 215 200 212 227 236 237 241 245 254 255 248 233
350 342 325 322 321 311 306 302 295 286 278 270 262 250 239 239 248 243 241 237 236 241 242 240 232 230 226 228 226 225 228 228 217 208 205 211 224 234 241 244 248 249 238
344 339 334 325 316 311 306 303 298 293 289 283 277 268 254 245 243 246 238 240 244 242 235 237 240 235 228 228 229 226 228 221 226 220 223 218 224 234 249 247 237 238 243
Height
1477 1478 1480 1481 1484 1487 1491 1494 1497 1499 1502 1504 1507 1509 1511 1514 1516 1517 1518 1520 1521 1523 1525 1525 1527 1529 1531 1532 1533 1534 1536 1537 1538 1539 1539 1538 1538 1540 1541 1543 1543 1545 1545
1477 1478 1481 1482 1484 1487 1490 1494 1496 1499 1502 1505 1507 1509 1512 1515 1517 1518 1519 1521 1522 1523 1525 1527 1528 1530 1531 1532 1533 1533 1535 1535 1536 1537 1538 1538 1539 1540 1541 1542 1543 1545 1546
1475 1477 1480 1483 1485 1487 1490 1494 1497 1499 1502 1504 1507 1509 1512 1515 1517 1519 1520 1522 1523 1524 1526 1527 1528 1530 1531 1532 1532 1533 1533 1534 1535 1537 1538 1540 1541 1541 1542 1542 1542 1545 1547
1474 1475 1478 1482 1484 1487 1490 1493 1496 1498 1501 1504 1507 1509 1512 1515 1517 1519 1520 1522 1523 1525 1527 1528 1529 1530 1530 1532 1532 1532 1534 1535 1535 1537 1539 1540 1542 1542 1543 1545 1544 1545 1548
1477 1473 1475 1480 1484 1487 1490 1493 1495 1498 1500 1503 1506 1509 1512 1515 1517 1519 1520 1522 1523 1525 1527 1528 1529 1530 1531 1531 1532 1533 1535 1535 1535 1537 1540 1539 1537 1540 1544 1546 1546 1546 1548
1478 1474 1474 1479 1483 1486 1489 1492 1494 1497 1499 1502 1504 1508 1511 1514 1516 1518 1519 1521 1523 1525 1527 1528 1529 1530 1531 1531 1531 1533 1535 1535 1536 1536 1536 1544 1539 1539 1544 1546 1547 1547 1548
1478 1475 1475 1478 1481 1484 1488 1491 1493 1496 1499 1501 1504 1506 1510 1512 1515 1518 1520 1521 1523 1524 1526 1527 1529 1530 1530 1530 1531 1533 1534 1534 1536 1535 1536 1512 1543 1539 1543 1547 1547 1547 1549
1477 1475 1476 1477 1480 1483 1486 1489 1492 1495 1498 1500 1502 1504 1507 1510 1513 1516 1518 1520 1522 1524 1526 1526 1527 1530 1529 1530 1530 1532 1533 1533 1534 1532 1532 1532 1531 1539 1541 1546 1546 1547 1548
1477 1474 1474 1476 1478 1481 1484 1487 1491 1494 1496 1498 1501 1503 1505 1508 1510 1513 1516 1518 1520 1523 1525 1526 1527 1528 1529 1529 1530 1531 1532 1532 1532 1530 1530 1532 1537 1540 1543 1542 1545 1546 1548
1474 1475 1472 1473 1475 1479 1481 1484 1487 1491 1493 1496 1499 1501 1504 1506 1509 1511 1514 1516 1518 1520 1522 1524 1525 1527 1527 1528 1528 1529 1531 1531 1530 1532 1534 1536 1536 1545 1542 1539 1542 1546 1548
1470 1473 1474 1471 1473 1476 1479 1482 1485 1488 1491 1493 1496 1499 1501 1504 1506 1508 1511 1513 1516 1517 1520 1521 1523 1524 1525 1526 1527 1528 1528 1529 1530 1534 1535 1538 1542 1544 1544 1541 1542 1544 1548
1468 1469 1472 1472 1472 1473 1477 1479 1482 1485 1488 1491 1493 1495 1498 1501 1503 1506 1508 1511 1512 1515 1516 1518 1519 1521 1523 1524 1525 1526 1526 1528 1532 1535 1536 1537 1538 1543 1542 1540 1542 1544 1548
1469 1465 1466 1469 1471 1473 1476 1477 1479 1481 1485 1487 1490 1493 1496 1498 1501 1504 1506 1508 1509 1511 1513 1515 1516 1518 1520 1523 1524 1524 1524 1526 1531 1533 1533 1534 1536 1540 1540 1540 1540 1541 1544
1466 1465 1464 1465 1467 1469 1474 1476 1477 1479 1482 1484 1487 1489 1492 1495 1498 1501 1504 1504 1506 1508 1509 1512 1513 1515 1517 1520 1524 1523 1522 1524 1528 1529 1529 1532 1535 1537 1539 1538 1537 1540 1542
1465 1466 1463 1464 1463 1466 1470 1474 1475 1477 1478 1481 1484 1486 1488 1491 1495 1497 1500 1503 1503 1504 1505 1507 1511 1513 1515 1517 1521 1522 1522 1522 1524 1526 1529 1532 1533 1534 1534 1536 1534 1535 1537
1462 1463 1463 1465 1464 1464 1465 1471 1473 1476 1477 1479 1482 1483 1484 1487 1490 1494 1496 1498 1500 1501 1502 1503 1506 1510 1512 1514 1516 1518 1520 1520 1519 1522 1524 1525 1527 1529 1530 1529 1532 1532 1534
1460 1461 1460 1462 1464 1463 1463 1467 1469 1471 1476 1475 1475 1480 1481 1483 1486 1489 1492 1494 1497 1499 1499 1501 1503 1506 1508 1509 1512 1513 1515 1517 1517 1517 1519 1519 1521 1523 1524 1525 1527 1528 1529
1458 1458 1459 1460 1461 1462 1463 1466 1467 1469 1470 1474 1474 1474 1476 1478 1481 1483 1486 1488 1491 1496 1496 1496 1498 1501 1504 1505 1507 1510 1511 1513 1514 1514 1515 1516 1514 1518 1520 1522 1523 1525 1525
1457 1458 1460 1460 1460 1459 1460 1460 1462 1465 1467 1469 1471 1471 1470 1473 1474 1478 1479 1482 1487 1488 1491 1492 1493 1495 1499 1500 1502 1505 1508 1509 1511 1512 1512 1513 1512 1514 1515 1517 1519 1518 1520
1457 1460 1460 1460 1459 1458 1458 1458 1459 1460 1462 1464 1465 1466 1468 1467 1470 1472 1474 1474 1478 1482 1484 1487 1488 1491 1493 1495 1498 1501 1503 1505 1506 1507 1508 1509 1509 1510 1511 1512 1513 1513 1513
1458 1460 1460 1458 1457 1456 1456 1455 1455 1456 1457 1460 1460 1462 1462 1464 1464 1466 1467 1469 1469 1472 1476 1482 1483 1485 1489 1491 1494 1497 1498 1500 1502 1502 1503 1504 1504 1504 1505 1507 1508 1508 1508
1459 1458 1457 1456 1454 1452 1452 1451 1451 1450 1450 1450 1451 1453 1455 1458 1457 1457 1460 1462 1463 1464 1468 1472 1476 1476 1481 1488 1489 1490 1494 1495 1494 1496 1496 1498 1499 1499 1499 1501 1503 1503 1504
1459 1456 1455 1453 1451 1449 1447 1446 1445 1444 1444 1444 1447 1447 1448 1450 1451 1448 1452 1454 1456 1457 1459 1462 1467 1469 1471 1478 1484 1486 1487 1486 1487 1489 1489 1491 1493 1494 1494 1496 1497 1498 1499
1455 1454 1451 1449 1447 1445 1443 1441 1440 1439 1438 1438 1438 1438 1438 1442 1443 1442 1445 1445 1447 1450 1452 1455 1458 1460 1464 1468 1475 1477 1479 1480 1481 1486 1486 1486 1489 1489 1490 1490 1491 1494 1496
1453 1451 1448 1446 1444 1441 1438 1437 1435 1433 1431 1429 1429 1429 1429 1430 1431 1433 1433 1436 1437 1441 1445 1446 1449 1452 1454 1458 1461 1465 1470 1475 1477 1479 1481 1482 1484 1485 1486 1486 1486 1488 1491
1451 1449 1446 1444 1441 1437 1433 1431 1429 1426 1423 1421 1421 1420 1421 1421 1421 1424 1422 1425 1430 1432 1437 1439 1442 1444 1446 1448 1453 1457 1460 1465 1468 1471 1476 1478 1478 1480 1481 1481 1481 1483 1485